Location: *
(50.2903°S, 172.5375°W)
Time: 03:41:59
(UTC+00:00)

SJ 16-02 - Pass Details

Date: 17 November 2019
Orbit: 606 x 616 km, 75.0° (Epoch: 10 December)

Event Time Altitude Azimuth Distance (km) Brightness Sun altitude
Rises 12:45:17 0° 196° (SSW) 2,936 5.7 -17.9°
Reaches altitude 10° 12:47:49 10° 184° (S) 2,022 4.9 -17.8°
Maximum altitude 12:51:45 28° 124° (SE) 1,177 3.4 -17.5°
Drops below altitude 10° 12:55:38 10° 64° (ENE) 1,997 4.0 -17.3°
Sets 12:58:08 0° 52° (NE) 2,894 4.7 -17.1°
